Tracking 19638 objects as of 20-Apr-2019
HD Live streaming from Space Station
objects crossing your sky now

NABEO/ELECTRON

Track NABEO/ELECTRON now!
10-day predictions


NORAD ID: 43692
Int'l Code: 2018-088C
Perigee: 500.5 km
Apogee: 526.8 km
Inclination: 85.0 °
Period: 94.8 minutes
Semi major axis: 6884 km
RCS: Unknown
Launch date: November 11, 2018
Source: United States (US)
Launch site: Rocket Lab Launch Complex (RLLC)
aabbcc
Your satellite tracking list
Your tracking list is empty




NASA's NSSDC Master Catalog

Two Line Element Set (TLE):
1 43692U 18088C   19110.20681884  .00001403  00000-0  63438-4 0  9994
2 43692  85.0366 357.5474 0019130  52.0047 308.2917 15.19785518 24287
Source of the keplerian elements: AFSPC